User: anonymous   Login
Location: Caltech
(34.1382°N, 118.1253°W)
Time: 13:39:15
(UTC-08:00)
Language:

Cosmos 676 Rocket - Orbit

View from above orbital plane
View from above orbital plane
View from above satellite
View from above satellite

Ground track
Ground track

The orbit data is extracted from the following two-line orbital elements,

1 07434U 74071B   14351.46293263  .00000448  00000-0  16175-3 0  3854
2 07434 074.0490 089.9202 0021496 228.9571 174.1279 14.36362183105655
Epoch (UTC): 17 December 2014 11:06:37
Eccentricity: 0.0021496
inclination: 74.0490°
perigee height: 755 km
apogee height: 786 km
right ascension of ascending node: 89.9202°
argument of perigee: 228.9571°
revolutions per day: 14.36362183
mean anomaly at epoch: 174.1279°
orbit number at epoch: 10565

The dashed part of the orbit path shows where the satellite is in the earth's shadow,  

DLR